• En España
  • Lista de países
  • Para 7 días
  • Temperatura del agua
  • Mapa Satelital
  • El tiempo en el mapa
  • Informadores
  • user-avatar
    Iniciar sesión

    Tiempo cada hora Drzonkow

    Hoy, 15 Octubre, Lunes

    Tiempo Temperatura Precipitaciones Viento Presión Humedad
    00:00 +14°C° 0 mm 3 mps 754 mmHg 48%
    01:00 +14°C° 0 mm 2 mps 754 mmHg 47%
    02:00 +13°C° 0 mm 3 mps 754 mmHg 46%
    03:00 +13°C° 0 mm 3 mps 754 mmHg 44%
    04:00 +13°C° 0 mm 3 mps 754 mmHg 42%
    05:00 +13°C° 0 mm 3 mps 754 mmHg 43%
    06:00 +13°C° 0 mm 3 mps 754 mmHg 44%
    07:00 +13°C° 0 mm 3 mps 754 mmHg 45%
    08:00 +16°C° 0 mm 3 mps 754 mmHg 40%
    09:00 +18°C° 0 mm 4 mps 754 mmHg 35%
    10:00 +20°C° 0 mm 4 mps 755 mmHg 31%
    11:00 +21°C° 0 mm 4 mps 755 mmHg 30%
    12:00 +23°C° 0 mm 4 mps 755 mmHg 29%
    13:00 +25°C° 0 mm 4 mps 755 mmHg 28%
    14:00 +24°C° 0 mm 3 mps 754 mmHg 32%
    15:00 +22°C° 0 mm 3 mps 754 mmHg 35%
    16:00 +23°C° 0 mm 2 mps 754 mmHg 39%
    17:00 +20°C° 0 mm 2 mps 754 mmHg 43%
    18:00 +19°C° 0 mm 3 mps 754 mmHg 46%
    19:00 +17°C° 0 mm 3 mps 754 mmHg 50%
    20:00 +17°C° 0 mm 3 mps 754 mmHg 52%
    21:00 +16°C° 0 mm 3 mps 754 mmHg 54%
    22:00 +15°C° 0 mm 2 mps 754 mmHg 56%
    23:00 +15°C° 0 mm 2 mps 754 mmHg 56%

    Mañana, 16 Octubre, Martes

    Tiempo Temperatura Precipitaciones Viento Presión Humedad
    00:00 +15°C° 0 mm 2 mps 754 mmHg 56%
    01:00 +14°C° 0 mm 2 mps 754 mmHg 56%
    02:00 +14°C° 0 mm 2 mps 754 mmHg 56%
    03:00 +14°C° 0 mm 2 mps 754 mmHg 56%
    04:00 +13°C° 0 mm 2 mps 754 mmHg 56%
    05:00 +13°C° 0 mm 2 mps 754 mmHg 56%
    06:00 +13°C° 0 mm 2 mps 755 mmHg 57%
    07:00 +13°C° 0 mm 2 mps 755 mmHg 57%
    08:00 +15°C° 0 mm 2 mps 755 mmHg 52%
    09:00 +17°C° 0 mm 2 mps 755 mmHg 47%
    10:00 +19°C° 0 mm 2 mps 755 mmHg 43%
    11:00 +20°C° 0 mm 2 mps 755 mmHg 41%
    12:00 +21°C° 0 mm 2 mps 755 mmHg 40%
    13:00 +23°C° 0 mm 2 mps 755 mmHg 38%
    14:00 +21°C° 0 mm 2 mps 755 mmHg 41%
    15:00 +21°C° 0 mm 2 mps 755 mmHg 44%
    16:00 +21°C° 0 mm 1 mps 755 mmHg 47%
    17:00 +20°C° 0 mm 1 mps 755 mmHg 51%
    18:00 +18°C° 0 mm 1 mps 755 mmHg 56%
    19:00 +16°C° 0 mm 1 mps 755 mmHg 60%
    20:00 +15°C° 0 mm 1 mps 755 mmHg 62%
    21:00 +15°C° 0 mm 1 mps 756 mmHg 64%
    22:00 +14°C° 0 mm 1 mps 756 mmHg 66%
    23:00 +14°C° 0 mm 1 mps 756 mmHg 67%

    Pasado mañana, 17 Octubre, Miércoles

    Tiempo Temperatura Precipitaciones Viento Presión Humedad
    00:00 +14°C° 0 mm 1 mps 756 mmHg 69%
    01:00 +13°C° 0 mm 1 mps 756 mmHg 71%
    02:00 +13°C° 0 mm 1 mps 756 mmHg 73%
    03:00 +13°C° 0 mm 1 mps 755 mmHg 75%
    04:00 +12°C° 0 mm 1 mps 755 mmHg 76%
    05:00 +12°C° 0 mm 1 mps 755 mmHg 77%
    06:00 +12°C° 0 mm 1 mps 756 mmHg 79%
    07:00 +12°C° 0 mm 1 mps 756 mmHg 80%
    08:00 +14°C° 0 mm 1 mps 756 mmHg 72%
    09:00 +16°C° 0 mm 1 mps 756 mmHg 65%
    10:00 +19°C° 0 mm 1 mps 756 mmHg 57%
    11:00 +20°C° 0 mm 1 mps 756 mmHg 54%
    12:00 +22°C° 0 mm 1 mps 756 mmHg 50%
    13:00 +23°C° 0 mm 1 mps 756 mmHg 47%
    14:00 +22°C° 0 mm 1 mps 755 mmHg 49%
    15:00 +22°C° 0 mm 1 mps 755 mmHg 52%
    16:00 +19°C° 0 mm 0 mps 755 mmHg 54%
    17:00 +20°C° 0 mm 1 mps 755 mmHg 58%
    18:00 +18°C° 0 mm 1 mps 755 mmHg 62%
    19:00 +16°C° 0 mm 1 mps 755 mmHg 65%
    20:00 +16°C° 0 mm 1 mps 755 mmHg 67%
    21:00 +15°C° 0 mm 1 mps 755 mmHg 69%
    22:00 +15°C° 0 mm 1 mps 756 mmHg 71%
    23:00 +14°C° 0 mm 1 mps 756 mmHg 72%

    18 Octubre, Jueves

    Tiempo Temperatura Precipitaciones Viento Presión Humedad
    00:00 +13°C° 0 mm 0 mps 756 mmHg 74%
    01:00 +12°C° 0 mm 0 mps 756 mmHg 76%
    02:00 +12°C° 0 mm 0 mps 756 mmHg 77%
    03:00 +12°C° 0 mm 0 mps 755 mmHg 79%
    04:00 +12°C° 0 mm 0 mps 755 mmHg 80%
    05:00 +11°C° 0 mm 0 mps 755 mmHg 81%
    06:00 +11°C° 0 mm 0 mps 756 mmHg 82%
    07:00 +11°C° 0 mm 0 mps 756 mmHg 82%
    08:00 +13°C° 0 mm 0 mps 756 mmHg 74%
    09:00 +15°C° 0 mm 0 mps 756 mmHg 66%
    10:00 +18°C° 0 mm 0 mps 756 mmHg 58%
    11:00 +20°C° 0 mm 1 mps 756 mmHg 55%
    12:00 +21°C° 0 mm 1 mps 756 mmHg 53%
    13:00 +22°C° 0 mm 1 mps 756 mmHg 50%
    14:00 +22°C° 0 mm 1 mps 756 mmHg 52%
    15:00 +21°C° 0 mm 1 mps 756 mmHg 55%
    16:00 +21°C° 0 mm 1 mps 756 mmHg 58%
    17:00 +20°C° 0 mm 1 mps 756 mmHg 63%
    18:00 +18°C° 0 mm 1 mps 756 mmHg 68%
    19:00 +16°C° 0 mm 1 mps 756 mmHg 73%
    20:00 +15°C° 0 mm 1 mps 757 mmHg 76%
    21:00 +15°C° 0 mm 1 mps 757 mmHg 79%
    22:00 +14°C° 0 mm 1 mps 757 mmHg 81%
    23:00 +14°C° 0 mm 1 mps 757 mmHg 83%

    19 Octubre, Viernes

    Tiempo Temperatura Precipitaciones Viento Presión Humedad
    00:00 +13°C° 0 mm 1 mps 757 mmHg 84%
    01:00 +13°C° 0 mm 1 mps 757 mmHg 86%
    02:00 +13°C° 0 mm 1 mps 757 mmHg 87%
    03:00 +12°C° 0 mm 1 mps 757 mmHg 89%
    04:00 +12°C° 0 mm 1 mps 757 mmHg 90%
    05:00 +12°C° 0 mm 1 mps 757 mmHg 91%
    06:00 +12°C° 0 mm 1 mps 758 mmHg 92%
    07:00 +12°C° 0 mm 1 mps 758 mmHg 93%
    08:00 +13°C° 0 mm 1 mps 758 mmHg 87%
    09:00 +14°C° 0 mm 2 mps 758 mmHg 81%
    10:00 +15°C° 0 mm 2 mps 758 mmHg 75%
    11:00 +16°C° 0 mm 2 mps 758 mmHg 70%
    12:00 +17°C° 0 mm 2 mps 758 mmHg 65%
    13:00 +18°C° 0 mm 2 mps 758 mmHg 61%
    14:00 +18°C° 0 mm 2 mps 758 mmHg 60%
    15:00 +17°C° 0 mm 2 mps 758 mmHg 59%
    16:00 +17°C° 0 mm 2 mps 758 mmHg 59%
    17:00 +15°C° 0 mm 2 mps 758 mmHg 61%
    18:00 +14°C° 0 mm 2 mps 758 mmHg 63%
    19:00 +13°C° 0 mm 2 mps 759 mmHg 66%
    20:00 +12°C° 0 mm 2 mps 759 mmHg 67%
    21:00 +10°C° 0 mm 2 mps 759 mmHg 68%
    22:00 +9°C° 0 mm 2 mps 759 mmHg 69%
    23:00 +9°C° 0 mm 2 mps 759 mmHg 72%

    20 Octubre, Sábado

    Tiempo Temperatura Precipitaciones Viento Presión Humedad
    00:00 +9°C° 0 mm 1 mps 759 mmHg 75%
    01:00 +8°C° 0 mm 1 mps 759 mmHg 77%
    02:00 +7°C° 0 mm 2 mps 760 mmHg 80%
    03:00 +6°C° 0 mm 2 mps 760 mmHg 83%
    04:00 +6°C° 0 mm 2 mps 760 mmHg 86%
    05:00 +6°C° 0 mm 2 mps 760 mmHg 88%
    06:00 +6°C° 0 mm 2 mps 760 mmHg 90%
    07:00 +5°C° 0 mm 2 mps 761 mmHg 92%
    08:00 +7°C° 0 mm 2 mps 761 mmHg 85%
    09:00 +8°C° 0 mm 2 mps 761 mmHg 78%
    10:00 +10°C° 0 mm 3 mps 762 mmHg 71%
    11:00 +11°C° 0 mm 3 mps 762 mmHg 67%
    12:00 +11°C° 0 mm 3 mps 761 mmHg 62%
    13:00 +12°C° 0 mm 3 mps 761 mmHg 58%
    14:00 +12°C° 0 mm 3 mps 761 mmHg 58%
    15:00 +11°C° 0 mm 3 mps 761 mmHg 58%
    16:00 +11°C° 0 mm 3 mps 762 mmHg 58%
    17:00 +10°C° 0 mm 2 mps 762 mmHg 63%
    18:00 +9°C° 0 mm 2 mps 762 mmHg 68%
    19:00 +9°C° 0 mm 1 mps 762 mmHg 73%
    20:00 +8°C° 0 mm 1 mps 763 mmHg 76%
    21:00 +8°C° 0 mm 1 mps 763 mmHg 78%
    22:00 +8°C° 0 mm 1 mps 763 mmHg 80%
    23:00 +6°C° 0 mm 2 mps 763 mmHg 82%
    Mostrar más